Regional Weather Roundup
Issued by NWS Charleston, SC

Current Version | Previous Version | Graphics & Text | Print | Product List | Glossary On
Versions: 1 2 3 4 5 6 7 8 9 10 11 12 13 14 15 16 17 18 19 20 21 22 23 24 25 26 27 28 29 30 31 32 33 34 35 36 37 38 39 40 41 42 43 44 45 46 47 48 49 50
000 ASUS42 KCHS 260813 RWRCHS REGIONAL WEATHER ROUNDUP NATIONAL WEATHER SERVICE CHARLESTON SC 400 AM EDT THU MAY 26 2016 NOTE: "FAIR" INDICATES FEW OR NO CLOUDS BELOW 12,000 FEET WITH NO SIGNIFICANT WEATHER AND/OR OBSTRUCTIONS TO VISIBILITY. NOT ALL STATIONS ARE QUALITY CONTROLLED. USE DATA WITH CAUTION... ESPECIALLY DEWPOINT OBSERVATIONS. SCZ027-030-031-034>040-042>050-260900- ...SOUTHEAST SOUTH CAROLINA... CITY SKY/WX TMP DP RH WIND PRES REMARKS N CHARLESTON CLEAR 70 66 87 SW3 30.17F WATERFRONT PRK N/A 73 70 90 VRB2 30.16S MOUNT PLEASANT FAIR 66 66 100 CALM 30.18S JOHNS ISLAND FAIR 70 68 94 CALM 30.18S PINOPOLIS N/A 72 68 88 VRB3 30.10F MONCKS CORNER FAIR 61 59 94 CALM 30.18R SUMMERVILLE FAIR 64 64 100 CALM 30.19S BEAUFORT MCAS CLEAR 71 68 90 VRB3 30.17F BEAUFORT ARPT FAIR 72 68 88 CALM 30.17S HILTON HEAD IS CLEAR 73 68 83 S6 30.17F WALTERBORO SUNNY 66 66 100 CALM 30.19R ALLENDALE FAIR 68 64 88 CALM 30.17S ...SOUTHERN MIDLANDS AND PEE DEE... CITY SKY/WX TMP DP RH WIND PRES REMARKS GEORGETOWN FAIR 64 64 100 SW3 30.19S FOG KINGSTREE FAIR 64 61 88 CALM 30.18S ORANGEBURG CLEAR 66 62 87 CALM 30.18S BARNWELL FAIR 70 66 88 CALM 30.18S AIKEN FAIR 68 59 73 S5 30.20S MANNING PTSUNNY 70 66 88 SW3 30.18S COLUMBIA CLEAR 68 60 75 SE5 30.16S SUMTER CLEAR 66 63 88 SW5 30.15S FLORENCE NOT AVBL MYRTLE BEACH CLOUDY 72 63 73 SW5 30.21R N MYRTLE BEACH CLOUDY 73 70 90 SW6 30.18S $$ GAZ063-065-086>088-099>101-113>116-118-119-134>141-150-260900- ...SOUTHEAST GEORGIA... CITY SKY/WX TMP DP RH WIND PRES REMARKS SAVANNAH ARPT PTCLDY 67 64 90 CALM 30.18S HUNTER AAF CLEAR 72 69 92 W3 30.15F FORT STEWART CLEAR 65 62 92 CALM 30.16S STATESBORO PTCLDY 69 66 90 SE5 30.17F SYLVANIA MOSUNNY 69 65 86 CALM 30.18F CLAXTON FAIR 64 63 98 CALM 30.17F ...CSRA...CENTRAL AND FAR SOUTHEAST GEORGIA... CITY SKY/WX TMP DP RH WIND PRES REMARKS THOMSON PTCLDY 70 63 78 CALM 30.21S AUGUSTA-BUSH PTCLDY 63 61 93 CALM 30.16R AUGUSTA-DANIEL PTCLDY 72 59 63 S6 30.17S SWAINSBORO FAIR 68 61 77 CALM 30.18S VIDALIA PTCLDY 68 63 83 S5 30.18R EASTMAN FAIR 67 61 79 CALM 30.18F HAZLEHURST FAIR 70 63 78 S6 30.16S ALMA PTCLDY 65 62 90 SE3 30.17F WAYCROSS CLEAR 65 63 94 CALM 30.18S JESUP FAIR 59 59 100 CALM 30.18S BAXLEY FAIR 66 64 94 CALM 30.17F BRUNSWICK CLEAR 68 64 88 CALM 30.18S FOG SAINT SIMONS CLEAR 75 66 73 SE7 30.17S $$ SCZ027-028-034-036>038-045-046-048>050-GAZ119-141-260900- ...LAKE AND SUPPLEMENTAL COASTAL OBSERVATIONS... STATION/POSITION TIME TEMP WIND PRES WAVE SWELL AIR SEA DIR/SP/G HT/PER HT/PER/DIR (UTC) (F) (DEG/KT/KT) (MB) (FT/S) (FT/S/D) WINYAH BAY 0645 72 250/ 3 1021.0 LAKE MURRAY 0700 74 220/ 10/ 13 1020.7F ACE BASIN NERRS NOT AVBL FORT PULASKI 0700 74 76 160/ 3/ 5 1022.2F SAPELO ISLAND 0700 74 140/ 5 1022.0S $$ ANZ835-935-AMZ111-154-330-350-352-354-370-450-454-472-260900- ...C-MAN AND BUOY OBSERVATIONS... STATION/POSITION TIME TEMP WIND PRES WAVE SWELL AIR SEA DIR/SP/G HT/PER HT/PER/DIR (UTC) (F) (DEG/KT/KT) (MB) (FT/S) (FT/S/D) BUOY 41004 0750 77 76 180/ 8/ 10 1022.0R 2/ 9 2/ 9 BUOY 41008 0750 76 76 150/ 10/ 12 1021.6F 2/ 9 2/ 90/ 9 FOLLY BEACH CMAN 0700 75 210/ 11/ 12 1022.2F CAPERS NEARSHORE 0708 75 75 230/ 10/ 16 1022.1R FRIPP NEARSHORE 0708 76 77 210/ 10/ 12 1021.3F STATION/POSITION TIME TEMP WIND PRES WAVE SWELL AIR SEA DIR/SP/G HT/PER HT/PER/DIR (UTC) (F) (DEG/KT/KT) (MB) (FT/S) (FT/S/D) 5E ST. MARYS GA 0721 78 N/A 2/ 9 FRYING PAN BUOY 0700 76 76 190/ 10/ 12 1022.1F BUOY 41025 0750 71 69 200/ 4/ 6 1022.8F 2/ 7 2/140/ 7 CAPE LOOKOUT NC 0800 71 180/ 5/ 6 1022.0F BUOY 41002 0750 74 78 80/ 10/ 12 1023.0F 2/ 9 2/ 50/ 9 BUOY 41010 0720 75 77 70/ 12/ 12 1021.0F ST AUGUSTINE FL 0800 77 79 110/ 9/ 11 1022.2F $$

USA.gov is the U.S. government's official web portal to all federal, state and local government web resources and services.